Weather Roundup
Issued by NWS Springfield, MO

Home | Current Version | Previous Version | Text Only | Print | Product List | Glossary On
Versions: 1 2 3 4 5 6 7 8 9 10 11 12 13 14 15 16 17 18 19 20 21 22 23 24 25 26 27 28 29 30 31 32 33 34 35 36 37 38 39 40 41 42 43 44 45 46 47 48 49 50
000
NZUS99 KSGF 210407
HRRSGF

HOURLY WEATHER
NATIONAL WEATHER SERVICE SPRINGFIELD MO
1000 PM CST TUE FEB 20 2018

......SGF CWA......

CITY           SKY/WX    TMP DP  RH WIND       PRES   REMARKS
SPRINGFIELD    FRZ RAIN  32  30  92 N21G30    30.20R WCI  20
JOPLIN         CLOUDY    27  27 100 N15       30.24R WCI  15
WEST PLAINS    RAIN      39  38  96 N9G17     30.11R FOG     WCI  33
ROLLA          RAIN      32  32 100 N10       30.19R FOG     WCI  24
OSAGE BEACH    LGT SNOW  31  30  96 N7        30.25R FOG     WCI  24

......SURROUNDING SGF CWA......

CITY           SKY/WX    TMP DP  RH WIND       PRES   REMARKS
CHANUTE        CLOUDY    24  19  81 N16       30.30R WCI  11
PARSONS        CLOUDY    26  22  84 N9G20     30.31R WCI  17
COFFEYVILLE    CLOUDY    26  23  88 N13       30.29R WCI  15
EMPORIA        CLOUDY    20  15  81 N13       30.33R WCI   7
GROVE OK       MIX PCPN  32  32 100 NW12      30.25R WCI  23
SILOAM SPRINGS FLURRIES  33  32  96 N10       30.15F WCI  25
HARRISON AR    LGT RAIN  37  37 100 NW14G21   30.15R WCI  28
NEAR YELLVILLE RAIN      43  42  97 NW5       30.11R

......KANSAS AND MISSOURI......

CITY           SKY/WX    TMP DP  RH WIND       PRES   REMARKS
KANSAS CTY INT CLOUDY    19  14  81 N13G20    30.34R WCI   6
DOWNTOWN KC    CLOUDY    23  15  71 N14       30.35R WCI  11
COLUMBIA       FRZ RAIN  31  29  92 N13       30.22R WCI  21
SEDALIA        CLOUDY    27  24  89 N15G24    30.30R WCI  15
ST JOSEPH      CLOUDY    19  15  84 N14       30.38R WCI   6
ST LOUIS       LGT RAIN  35  34  96 N12       30.19R WCI  27
SPIRIT OF STL  LGT RAIN  36  33  89 N10       30.19R WCI  28
KIRKSVILLE     CLOUDY    23  21  92 NW17      30.28R WCI   9
WICHITA        CLOUDY    23  15  71 N16       30.32R WCI  10
TOPEKA         CLOUDY    20  15  81 N9        30.38R WCI   9
OLATHE         PTCLDY    20  17  88 N12       30.32R WCI   8

......TENNESSEE......

CITY           SKY/WX    TMP DP  RH WIND       PRES   REMARKS
MEMPHIS        MOCLDY    73  63  70 S20G28    30.07R
NASHVILLE      FAIR      71  60  68 S14       30.20R

......ARKANSAS.......

CITY           SKY/WX    TMP DP  RH WIND       PRES   REMARKS
FAYETTEVILLE   RAIN      35  35 100 VRB6      30.17R FOG     WCI  30
FT SMITH       RAIN      42  41  96 N3        30.11F
LITTLE ROCK    CLOUDY    66  64  93 W9        30.05R

......OKLAHOMA.......

CITY           SKY/WX    TMP DP  RH WIND       PRES   REMARKS
TULSA          CLOUDY    28  25  88 N15       30.26R WCI  16
PONCA CITY     CLOUDY    25  17  72 N18G26    30.30R WCI  11
MCALESTER      LGT RAIN  32  31  96 N18G26    30.19R WCI  20
OKLAHOMA CITY  CLOUDY    25  22  88 N20G31    30.23R WCI  11

......IOWA............

CITY           SKY/WX    TMP DP  RH WIND       PRES   REMARKS
DES MOINES     CLOUDY    18  12  77 NW12G21   30.33R WCI   5
QUAD CITIES    MOCLDY    27  20  75 NW18      30.23R WCI  14

......ILLINOIS........

CITY           SKY/WX    TMP DP  RH WIND       PRES   REMARKS
QUINCY         FRZ RAIN  27  24  89 NW20      30.24R WCI  13
CHICAGO        LGT RAIN  34  31  88 NW7       30.13R WCI  28




USA.gov is the U.S. government's official web portal to all federal, state and local government web resources and services.